Zurück zum Katalog

YAOGAN-43 03A

AktivMilitärVLEO
NORAD 61617·PAYLOAD·🇨🇳 China

Gestartet Oct 23, 2024 von Xichang Satellite Launch Center

Loading…

Nächste Überflüge (nächste 24 Stunden)

TLE

AktuellSource: Space-Track

Epoche: Sep 14, 2026, 17:21 UTC

1 61617U 24190A   26257.72334616  .00005810  00000-0  24217-3 0  9994
2 61617  34.9923 354.5789 0004171  64.5240 295.5906 15.23041926105520

Verfolge YAOGAN-43 03A in Echtzeit mit AllMySat

Download on the App Store